Date,TemperatureHighF,TemperatureAvgF,TemperatureLowF,DewpointHighF,DewpointAvgF,DewpointLowF,HumidityHigh,HumidityAvg,HumidityLow,PressureMaxIn,PressureMinIn,WindSpeedMaxMPH,WindSpeedAvgMPH,GustSpeedMaxMPH,PrecipitationSumIn
2013-1-1,27.0,23.2,11.4,22.0,18.0,7.8,88,80,74,30.21,30.10,8,2,12,0.01
2013-1-2,23.0,15.8,9.4,15.1,10.1,6.6,90,78,66,30.28,30.19,8,2,13,0.00
2013-1-3,30.2,22.7,13.6,24.9,17.6,6.6,88,80,72,30.29,30.17,14,6,19,0.00
2013-1-4,28.9,20.8,12.8,22.3,16.7,9.4,89,84,75,30.30,30.20,22,6,22,0.00
2013-1-5,32.5,26.7,18.4,30.1,23.2,16.2,94,87,73,30.33,30.07,11,4,21,0.01
2013-1-6,33.5,31.4,27.2,31.1,27.8,23.4,91,87,79,30.35,29.96,19,6,21,0.00
2013-1-7,34.1,26.1,17.9,25.4,21.4,16.3,94,83,66,30.42,30.19,16,5,24,0.00
2013-1-8,38.2,31.4,26.1,29.9,25.6,22.2,86,79,66,30.26,30.14,11,4,18,0.00
2013-1-9,45.4,38.6,29.4,33.4,29.6,23.9,86,71,47,30.49,30.09,15,6,22,0.01
2013-1-10,39.5,32.7,23.5,35.0,27.3,20.2,95,81,65,30.56,30.06,16,5,22,0.24
2013-1-11,52.5,47.5,36.7,50.4,45.3,35.4,97,92,87,30.05,29.77,15,6,25,0.46
2013-1-12,55.2,48.6,37.4,48.9,43.9,35.8,94,84,74,29.97,29.79,16,5,20,0.22
2013-1-13,36.9,30.7,20.3,35.3,29.0,16.8,96,93,85,30.21,29.82,16,5,23,0.15
2013-1-14,23.0,19.6,15.0,17.8,15.4,12.3,89,84,76,30.51,30.22,9,4,19,0.00
2013-1-15,28.9,20.3,12.3,21.1,15.8,10.2,93,83,64,30.49,30.21,7,1,10,0.00
2013-1-16,34.2,26.5,17.6,28.0,20.8,15.5,93,80,58,30.21,29.92,16,5,24,0.00
2013-1-17,33.4,28.6,21.6,29.4,21.2,13.7,87,73,63,30.41,30.07,18,5,24,0.00
2013-1-18,36.9,28.1,19.1,27.6,20.1,13.6,84,72,61,30.47,30.03,20,7,28,0.01
2013-1-19,46.0,39.5,34.8,35.7,31.5,27.4,82,73,63,30.03,29.76,24,9,37,0.01
2013-1-20,39.0,19.8,15.8,26.3,12.1,8.4,83,72,52,30.29,29.79,26,9,39,0.00
2013-1-21,18.2,11.8,7.3,8.9,6.2,3.5,89,78,65,30.27,30.15,19,10,26,0.00
2013-1-22,7.7,6.0,3.6,4.6,2.7,0.6,89,86,79,30.42,30.27,11,5,16,0.00
2013-1-23,18.8,12.7,7.6,15.6,7.2,2.0,91,78,66,30.39,30.16,10,6,18,0.00
2013-1-24,17.6,13.9,6.7,13.9,6.2,2.0,91,72,52,30.68,30.26,10,2,15,0.01
2013-1-25,24.6,19.1,15.9,21.0,14.0,6.2,91,80,65,30.49,30.06,9,4,14,0.00
2013-1-26,25.1,23.6,22.0,21.6,18.9,15.9,88,82,75,30.47,30.13,10,3,15,0.01
2013-1-27,33.1,26.1,21.4,31.3,21.7,16.5,93,83,76,30.48,30.06,13,4,25,0.00
2013-1-28,45.3,40.2,33.5,44.8,39.4,32.0,98,97,94,30.06,29.90,17,4,19,0.23
2013-1-29,57.4,53.3,38.5,55.7,52.1,38.0,98,96,90,29.95,29.41,15,6,28,0.84
2013-1-30,51.6,41.5,25.2,50.8,40.3,23.0,98,96,87,29.51,29.17,18,6,26,0.70
2013-1-31,24.7,16.5,10.6,21.9,13.3,8.5,91,87,74,30.09,29.53,20,11,29,0.00
2013-2-1,12.8,7.4,2.5,8.7,4.1,0.0,91,86,76,30.42,30.11,14,6,20,0.00
2013-2-2,23.7,17.4,13.0,22.2,15.2,8.8,94,91,83,30.30,30.03,10,3,16,0.00
2013-2-3,20.2,15.3,9.8,17.2,12.0,7.0,92,87,78,30.11,30.00,14,4,21,0.00
2013-2-4,25.3,21.2,17.8,21.9,18.9,14.6,94,91,86,30.11,29.90,8,2,10,0.00
2013-2-5,28.7,23.3,16.0,27.0,21.0,14.3,95,91,79,30.07,29.86,15,4,19,0.00
2013-2-6,33.4,28.1,20.7,24.3,21.3,16.9,87,76,64,30.31,30.07,9,2,11,0.07
2013-2-7,39.4,32.3,27.0,31.5,27.7,23.6,95,83,70,30.22,29.86,9,4,13,0.41
2013-2-8,32.3,30.1,24.4,31.5,25.6,19.4,97,83,72,30.41,29.87,15,4,20,0.05
2013-2-9,34.8,26.5,17.0,25.9,21.4,15.1,93,81,69,30.45,30.21,10,3,15,0.03
2013-2-10,47.7,37.2,29.1,45.5,32.5,23.1,95,83,74,30.21,29.60,15,6,22,0.22
2013-2-11,49.2,35.3,29.4,45.8,28.3,22.2,91,75,70,30.02,29.59,24,13,33,0.01
2013-2-12,29.5,27.4,22.3,23.6,22.1,19.5,89,80,76,30.14,30.00,14,6,23,0.00
2013-2-13,43.0,31.2,19.6,31.7,26.0,17.7,93,82,62,30.00,29.77,12,3,17,0.00
2013-2-14,39.7,35.2,31.9,33.5,29.4,22.1,89,79,63,29.98,29.72,19,7,25,0.00
2013-2-15,32.6,26.1,18.5,26.8,20.4,13.3,94,79,64,30.21,29.97,11,3,17,0.06
2013-2-16,23.6,18.0,11.4,19.3,12.5,7.8,90,79,65,30.19,30.12,17,5,23,0.00
2013-2-17,27.3,19.6,11.7,15.8,12.3,9.3,92,75,47,30.28,30.17,8,2,12,0.02
2013-2-18,50.9,37.9,23.3,43.6,29.1,13.9,91,71,61,30.18,29.49,21,7,30,0.28
2013-2-19,43.8,20.0,14.1,41.8,16.8,9.8,94,87,80,30.14,29.47,27,12,31,0.14
2013-2-20,20.9,17.4,13.9,17.9,14.7,10.7,92,89,84,30.39,30.14,14,6,19,0.00
2013-2-21,25.3,22.5,19.5,19.9,18.0,15.8,91,83,77,30.43,30.12,18,5,29,0.01
2013-2-22,32.4,26.6,20.2,31.2,24.0,16.2,96,90,79,30.13,29.89,18,7,27,0.01
2013-2-23,27.9,25.8,24.0,23.5,20.8,19.0,88,81,71,30.01,29.95,13,6,15,0.01
2013-2-24,34.8,26.2,18.2,24.8,20.8,15.8,91,81,63,30.20,29.99,10,3,12,0.00
2013-2-25,40.3,30.3,19.7,27.4,23.7,17.8,94,77,57,30.25,30.07,9,2,15,0.00
2013-2-26,33.6,31.8,30.0,31.1,27.5,23.6,96,84,69,30.07,29.50,15,7,31,0.39
2013-2-27,33.4,31.9,31.3,32.4,31.0,30.4,97,96,96,29.65,29.50,7,2,10,0.35
2013-2-28,36.8,32.9,30.4,32.0,30.1,26.8,97,89,82,30.02,29.65,9,4,16,0.05
2013-3-1,34.0,29.6,25.8,26.9,24.0,19.6,89,80,68,30.19,30.02,7,3,11,0.00
2013-3-2,30.0,26.5,22.6,21.7,19.8,17.1,84,75,66,30.18,30.13,11,3,18,0.00
2013-3-3,29.1,23.9,15.4,21.3,17.3,12.3,88,76,63,30.16,30.10,11,3,16,0.00
2013-3-4,34.7,25.4,13.7,24.8,17.5,11.5,93,74,49,30.20,30.08,8,2,11,0.00
2013-3-5,32.2,29.2,26.2,27.1,25.2,22.5,96,85,72,30.11,29.81,17,5,21,0.00
2013-3-6,34.8,30.3,25.4,30.0,27.2,24.2,95,88,76,30.30,29.92,10,4,15,0.28
2013-3-7,35.5,31.5,23.4,30.4,26.7,21.2,95,83,60,30.46,30.30,9,3,13,0.05
2013-3-8,38.7,28.5,16.2,24.7,21.4,14.5,95,76,52,30.55,30.43,7,1,10,0.00
2013-3-9,42.4,35.7,28.7,34.0,28.2,21.4,80,74,63,30.42,29.98,15,5,20,0.00
2013-3-10,57.4,47.7,39.7,45.7,39.1,33.4,85,72,62,29.97,29.71,11,4,16,0.10
2013-3-11,52.5,42.6,33.1,46.6,39.8,29.9,96,90,72,29.77,29.55,17,6,22,0.13
2013-3-12,34.7,31.3,28.2,30.2,27.1,23.6,94,85,67,29.99,29.79,16,8,21,0.00
2013-3-13,28.4,25.6,22.7,24.8,19.7,14.8,93,79,59,30.34,30.00,13,8,24,0.01
2013-3-14,39.8,29.9,18.5,27.9,20.6,15.0,87,69,50,30.36,30.18,6,3,12,0.00
2013-3-15,44.5,35.3,28.2,37.1,32.5,27.0,95,90,72,30.15,29.83,9,3,10,0.09
2013-3-16,36.5,32.6,28.0,35.5,29.9,21.7,96,90,77,30.13,29.70,9,4,13,0.00
2013-3-17,34.8,29.9,27.4,24.2,21.5,19.0,81,71,56,30.25,30.14,13,5,22,0.01
2013-3-18,33.3,29.6,26.8,32.0,26.4,19.8,96,88,74,30.11,29.63,22,8,28,0.05
2013-3-19,32.0,26.4,18.6,20.1,16.4,13.1,82,66,52,30.08,29.80,24,13,33,0.00
2013-3-20,27.4,21.3,17.5,17.9,13.7,8.4,90,73,60,30.09,30.04,14,8,23,0.00
2013-3-21,27.2,20.3,16.7,18.9,16.2,14.2,93,85,65,30.09,30.01,12,5,19,0.06
2013-3-22,35.0,25.1,14.1,22.0,17.0,12.2,93,73,45,30.12,30.06,9,2,15,0.00
2013-3-23,37.2,28.3,19.7,25.3,22.2,18.0,93,79,61,30.18,30.06,5,2,10,0.00
2013-3-24,36.2,30.9,25.1,26.5,24.3,21.6,87,77,63,30.07,29.65,14,5,21,0.00
2013-3-25,35.5,32.0,29.1,28.3,25.9,23.4,83,78,72,30.04,29.66,13,5,18,0.00
2013-3-26,37.4,33.5,30.5,31.0,29.1,27.2,94,84,73,30.26,30.04,10,4,16,0.02
2013-3-27,40.9,34.5,24.3,31.5,25.1,18.4,92,70,46,30.34,30.26,10,4,19,0.00
2013-3-28,45.1,33.8,20.8,30.3,21.9,18.1,92,64,39,30.37,30.32,8,2,15,0.00
2013-3-29,48.6,37.4,24.0,28.8,21.4,19.0,87,56,32,30.36,30.27,10,2,16,0.00
2013-3-30,55.3,42.3,23.8,34.5,27.8,18.2,85,58,41,30.29,29.94,7,2,14,0.00
2013-3-31,56.1,46.5,37.8,42.2,35.5,28.6,95,67,47,29.93,29.70,18,8,26,0.01
2013-4-1,37.6,31.5,23.4,30.0,19.0,15.1,80,60,48,30.18,29.84,12,5,23,0.00
2013-4-2,38.6,29.9,23.0,19.6,15.5,11.2,83,58,33,30.33,30.19,14,4,21,0.00
2013-4-3,42.7,30.1,18.0,21.3,16.1,10.6,87,59,28,30.49,30.34,8,2,14,0.00
2013-4-4,54.1,39.6,22.6,25.4,20.3,16.5,81,49,26,30.38,30.00,8,2,13,0.00
2013-4-5,47.8,40.0,30.3,32.2,25.8,19.9,86,59,34,30.23,30.00,11,4,15,0.00
2013-4-6,65.4,50.7,30.8,44.3,32.2,24.8,83,51,36,30.20,29.71,15,6,30,0.01
2013-4-7,61.9,50.2,41.8,47.7,39.7,34.8,83,68,47,29.99,29.65,13,6,35,0.03
2013-4-8,65.2,47.6,39.9,54.5,41.3,34.2,92,79,62,30.00,29.70,18,7,29,0.18
2013-4-9,74.3,55.7,39.9,61.4,48.7,38.0,94,78,55,30.02,29.83,14,5,22,0.00
2013-4-10,52.1,45.9,40.3,49.0,43.8,39.0,96,92,88,29.96,29.84,14,4,18,0.09
2013-4-11,42.6,41.6,39.2,41.5,40.3,38.2,96,95,93,29.90,29.61,22,8,27,0.46
2013-4-12,42.7,38.7,36.0,38.4,35.8,32.0,97,89,79,29.87,29.60,14,6,20,0.10
2013-4-13,41.6,38.2,32.2,33.3,30.0,26.3,93,73,56,30.02,29.87,16,7,23,0.06
2013-4-14,60.1,45.4,36.5,47.5,36.9,29.2,83,72,61,30.07,29.80,16,6,25,0.04
2013-4-15,63.8,57.5,44.7,56.2,51.8,43.1,95,82,69,29.95,29.80,15,5,22,0.02
2013-4-16,48.5,44.5,40.6,43.4,38.3,33.7,96,80,59,30.26,29.95,10,3,14,0.01
2013-4-17,52.1,46.8,41.8,45.3,40.1,34.3,95,78,66,30.29,29.92,16,6,25,0.01
2013-4-18,69.5,58.4,46.6,64.0,56.1,45.0,96,92,78,29.91,29.51,19,7,28,0.02
2013-4-19,52.3,37.9,33.2,50.6,32.4,29.0,94,80,72,29.89,29.50,21,11,31,0.01
2013-4-20,39.9,34.6,30.9,30.5,23.3,18.5,85,64,43,30.48,29.89,14,6,20,0.01
2013-4-21,50.0,38.6,25.9,31.4,24.1,19.0,76,57,41,30.60,30.42,12,4,19,0.06
2013-4-22,62.5,49.9,34.6,36.8,32.7,29.4,82,55,31,30.43,30.12,10,4,19,0.00
2013-4-23,64.6,51.1,38.1,52.8,42.8,36.7,95,75,53,30.12,29.86,18,4,21,0.63
2013-4-24,44.4,38.1,34.3,36.6,31.4,24.8,96,78,50,30.18,29.88,14,5,23,0.04
2013-4-25,48.2,41.7,35.6,36.2,31.9,28.2,85,69,48,30.38,30.13,16,6,24,0.00
2013-4-26,63.1,49.0,34.0,41.8,35.1,27.9,80,60,44,30.43,30.31,15,3,19,0.00
2013-4-27,66.9,55.7,39.7,46.4,40.0,35.7,86,59,33,30.35,30.05,12,3,17,0.00
2013-4-28,58.2,54.2,49.6,53.2,50.1,46.1,94,86,64,30.05,29.84,6,1,9,0.13
2013-4-29,68.7,57.6,44.3,56.7,50.7,43.0,97,80,58,29.96,29.86,10,3,15,0.00
2013-4-30,80.6,67.8,56.9,61.6,56.3,51.1,82,68,47,29.97,29.87,15,6,20,0.00
2013-5-1,82.1,72.4,61.2,59.7,55.7,53.2,75,57,38,30.14,29.98,8,3,18,0.00
2013-5-2,72.5,61.7,41.6,57.8,51.9,38.6,90,71,57,30.16,30.08,11,3,15,0.00
2013-5-3,73.2,55.4,41.1,59.0,49.3,38.7,93,81,57,30.12,29.96,9,2,15,0.05
2013-5-4,70.9,64.6,59.0,51.0,45.1,39.7,60,50,33,30.02,29.96,16,5,21,0.00
2013-5-5,71.8,62.4,50.7,48.1,44.9,41.6,71,54,36,30.02,29.97,14,4,18,0.00
2013-5-6,76.9,63.7,54.3,49.1,42.2,30.9,68,48,20,30.02,29.92,10,2,12,0.00
2013-5-7,74.7,62.4,48.6,54.0,48.2,43.6,86,62,44,30.04,29.97,9,1,14,0.00
2013-5-8,75.5,65.5,52.7,55.5,49.3,44.4,84,58,37,30.03,29.96,11,2,14,0.00
2013-5-9,77.6,62.3,47.6,61.6,51.8,44.8,93,72,37,29.98,29.87,7,1,20,0.33
2013-5-10,60.2,51.2,41.8,58.8,49.7,40.9,97,94,88,29.95,29.75,14,5,17,0.13
2013-5-11,53.1,44.3,37.4,49.7,40.8,34.2,97,88,65,30.02,29.85,12,4,25,0.01
2013-5-12,48.3,41.1,34.9,34.9,31.3,28.8,92,69,49,30.15,30.02,14,5,23,0.00
2013-5-13,57.8,46.3,31.9,33.6,29.5,23.2,92,56,29,30.23,30.10,14,2,21,0.00
2013-5-14,81.4,66.2,50.2,59.7,44.8,25.9,61,46,37,30.10,29.68,15,4,22,0.00
2013-5-15,77.0,72.4,58.9,61.1,54.7,48.3,79,55,38,29.81,29.63,12,5,20,0.08
2013-5-16,80.8,66.1,50.2,52.6,48.6,43.1,94,59,29,29.97,29.80,7,1,11,0.00
2013-5-17,79.0,66.7,57.1,60.9,50.2,42.5,81,56,34,30.05,29.96,8,3,17,0.00
2013-5-18,78.1,68.2,59.2,60.4,51.8,40.2,74,56,49,30.09,29.96,9,2,17,0.00
2013-5-19,85.6,73.7,59.0,65.2,59.4,51.3,76,62,45,29.98,29.78,14,3,16,0.00
2013-5-20,85.9,77.9,69.4,69.3,65.8,61.7,90,68,45,29.83,29.73,15,5,27,0.00
2013-5-21,79.5,71.2,62.1,66.7,63.7,59.8,96,78,59,29.77,29.68,14,4,30,0.68
2013-5-22,72.2,67.5,63.4,64.9,62.8,57.5,94,85,75,29.73,29.64,13,4,22,0.30
2013-5-23,63.2,48.8,40.7,58.6,46.6,38.3,97,92,84,30.23,29.72,10,4,17,0.01
2013-5-24,53.4,45.5,36.5,41.4,37.3,33.8,95,75,49,30.43,30.24,12,3,16,0.00
2013-5-25,62.2,50.1,37.2,48.7,41.9,35.6,95,75,47,30.43,30.30,7,1,10,0.00
2013-5-26,69.4,57.2,41.3,51.6,42.0,38.9,93,61,36,30.33,30.18,11,2,17,0.00
2013-5-27,60.3,55.3,50.5,54.2,50.4,40.2,95,85,48,30.19,29.91,15,6,26,0.37
2013-5-28,77.7,67.7,55.6,69.5,63.7,54.2,97,87,73,29.92,29.78,22,5,33,0.83
2013-5-29,82.1,71.6,61.6,69.9,64.4,59.9,95,79,59,29.97,29.82,12,4,19,0.10
2013-5-30,82.7,76.1,68.8,68.9,65.7,61.7,82,71,59,29.98,29.86,14,4,25,0.00
2013-5-31,75.7,70.4,64.5,67.4,64.7,61.4,93,82,74,29.92,29.70,13,4,25,0.37
2013-6-1,72.7,68.1,61.0,65.9,62.8,58.0,94,84,73,29.82,29.69,12,5,21,0.24
2013-6-2,61.4,55.0,44.3,59.4,50.7,41.0,94,85,72,30.03,29.70,11,4,16,0.01
2013-6-3,63.5,51.5,39.3,50.3,43.1,38.2,96,75,49,30.14,30.04,8,1,16,0.00
2013-6-4,72.1,59.2,44.4,54.3,46.8,41.8,92,67,41,30.20,30.10,6,1,13,0.00
2013-6-5,74.6,66.0,57.4,53.6,48.7,44.6,74,54,45,30.12,29.92,10,4,16,0.00
2013-6-6,70.7,62.9,55.8,55.6,50.8,43.9,89,65,51,29.94,29.84,7,2,13,0.00
2013-6-7,71.1,59.2,51.1,55.8,50.8,45.5,92,75,50,29.92,29.87,7,1,12,0.01
2013-6-8,72.6,60.9,46.7,55.9,50.6,44.4,94,71,50,30.02,29.91,6,1,10,0.00
2013-6-9,79.9,69.7,59.3,63.6,57.6,51.0,85,67,46,30.03,29.84,10,3,19,0.00
2013-6-10,72.1,66.7,61.0,65.6,63.4,59.9,96,89,72,29.85,29.74,12,3,16,0.52
2013-6-11,81.8,69.0,59.0,67.0,62.5,58.2,98,81,56,29.93,29.83,8,3,13,0.00
2013-6-12,86.6,74.7,64.7,74.9,68.9,62.6,94,83,63,29.89,29.59,12,2,23,0.17
2013-6-13,69.8,64.0,55.8,62.0,58.2,52.5,96,82,66,30.00,29.50,15,4,20,0.34
2013-6-14,75.5,62.6,51.3,60.9,55.6,49.9,96,79,55,30.11,29.99,10,2,15,0.00
2013-6-15,72.7,65.1,55.3,64.2,59.9,53.7,96,84,67,30.08,29.90,9,2,17,0.02
2013-6-16,81.5,72.9,66.1,66.6,63.1,55.6,90,73,43,29.91,29.86,11,4,17,0.00
2013-6-17,85.0,73.9,62.9,67.0,60.0,51.0,95,67,32,29.92,29.84,10,2,16,0.02
2013-6-18,76.1,66.3,59.7,62.1,58.5,50.6,94,77,55,30.04,29.86,8,2,13,0.02
2013-6-19,77.0,64.6,52.9,51.8,47.9,44.5,80,57,34,30.16,30.04,8,1,12,0.00
2013-6-20,84.0,70.9,55.5,64.0,56.6,49.0,85,63,42,30.18,30.10,7,1,11,0.00
2013-6-21,84.4,73.2,67.1,67.5,63.9,60.8,93,74,48,30.16,29.97,11,2,24,0.27
2013-6-22,81.9,73.9,67.1,74.0,68.8,63.8,92,84,74,30.08,29.97,8,3,11,0.05
2013-6-23,85.8,75.3,65.1,71.2,66.3,62.9,94,75,53,30.06,29.95,12,3,18,0.01
2013-6-24,83.0,73.4,65.5,71.8,66.8,63.1,94,81,61,30.07,29.90,11,3,35,0.01
2013-6-25,86.7,73.0,65.4,75.4,68.8,63.6,95,87,66,29.97,29.80,12,3,26,0.24
2013-6-26,80.1,71.3,63.7,72.2,67.2,62.2,96,87,70,29.89,29.72,12,3,17,0.29
2013-6-27,82.2,71.8,64.3,71.9,67.7,63.4,97,88,67,29.77,29.67,11,3,17,0.17
2013-6-28,77.8,69.8,64.1,65.7,63.4,61.3,96,81,60,29.67,29.58,11,3,17,0.00
2013-6-29,75.0,65.4,60.7,66.9,62.1,59.6,96,90,68,29.72,29.56,8,1,14,0.12
2013-6-30,76.6,66.6,60.1,66.6,61.3,58.7,96,84,59,29.94,29.72,9,1,12,0.02
2013-7-1,74.3,65.0,54.6,61.9,53.5,45.4,90,67,48,30.04,29.94,9,2,18,0.00
2013-7-2,65.2,60.8,57.5,61.0,57.3,52.1,97,89,64,30.05,30.01,3,0,9,0.59
2013-7-3,75.2,66.7,61.4,66.8,63.2,60.5,98,89,69,30.08,30.00,12,2,13,0.03
2013-7-4,77.0,68.8,59.8,64.8,62.5,58.7,97,81,62,30.13,30.06,6,1,10,0.00
2013-7-5,81.5,71.5,59.8,68.3,64.4,58.4,97,80,58,30.11,30.02,6,1,9,0.00
2013-7-6,79.1,72.7,66.6,69.7,67.5,64.3,94,84,70,30.08,29.98,5,1,12,0.00
2013-7-7,81.7,73.7,66.8,72.0,68.7,65.1,95,85,70,30.03,29.96,8,2,11,0.00
2013-7-8,80.8,74.4,69.4,73.6,70.2,67.3,94,87,78,30.05,29.94,8,3,14,0.19
2013-7-9,85.2,75.4,68.7,77.5,72.4,67.5,97,91,73,29.99,29.87,12,2,29,0.34
2013-7-10,79.6,74.5,61.6,75.8,68.5,57.4,95,82,58,29.98,29.83,12,3,13,0.03
2013-7-11,76.4,66.3,56.3,63.9,57.8,54.4,97,76,49,30.08,29.98,10,1,13,0.17
2013-7-12,81.1,67.8,54.1,63.4,57.8,52.4,97,73,45,30.15,30.07,5,1,10,0.01
2013-7-13,82.5,71.5,58.4,65.9,61.7,56.1,93,73,54,30.17,30.11,8,1,13,0.01
2013-7-14,88.4,77.8,65.5,71.3,67.7,63.2,93,72,51,30.21,30.15,7,2,12,0.00
2013-7-15,86.1,78.8,70.9,78.3,73.7,68.8,94,85,70,30.26,30.20,5,1,12,0.12
2013-7-16,89.1,80.6,72.0,74.4,72.6,70.5,96,78,58,30.32,30.24,6,1,10,0.00
2013-7-17,88.9,80.7,70.8,76.3,73.2,69.3,96,79,62,30.31,30.16,8,2,12,0.00
2013-7-18,90.4,81.1,72.4,76.9,73.6,70.6,95,79,57,30.17,29.96,10,2,18,0.00
2013-7-19,92.1,83.0,73.9,75.4,73.0,70.0,94,74,49,29.97,29.75,15,5,24,0.00
2013-7-20,84.4,78.6,68.4,73.7,67.5,62.6,92,70,49,29.91,29.75,11,2,16,0.00
2013-7-21,85.5,75.3,64.9,68.1,64.9,61.9,91,72,50,29.96,29.85,8,1,11,0.01
2013-7-22,84.0,73.0,65.0,69.3,66.7,62.9,95,82,58,29.91,29.74,13,2,15,0.32
2013-7-23,75.3,69.5,58.8,68.5,63.4,53.7,93,81,66,29.91,29.69,9,4,18,0.06
2013-7-24,72.3,60.2,49.4,56.4,51.3,47.2,93,74,48,30.06,29.93,9,1,13,0.00
2013-7-25,74.9,63.8,52.7,59.5,54.9,51.0,95,75,53,30.12,30.05,5,1,9,0.00
2013-7-26,72.7,65.7,58.4,62.1,58.8,53.7,91,79,64,30.07,29.89,8,2,21,0.02
2013-7-27,67.8,62.6,56.7,62.7,58.1,49.2,97,86,72,29.90,29.84,10,3,20,0.01
2013-7-28,64.5,57.5,50.2,52.4,49.8,47.4,90,76,60,30.01,29.86,15,5,18,0.00
2013-7-29,70.3,60.9,53.9,58.4,53.9,50.4,91,78,64,30.19,30.01,10,3,16,0.00
2013-7-30,75.3,65.1,52.2,61.9,57.5,50.8,97,78,57,30.22,30.10,6,1,10,0.00
2013-7-31,68.4,65.5,62.1,66.3,63.4,61.0,96,93,82,30.10,29.94,7,1,10,0.10
2013-8-1,75.5,64.7,60.6,65.8,60.7,54.3,98,89,49,29.97,29.93,7,2,17,0.01
2013-8-2,77.0,64.1,56.0,70.0,61.0,53.7,96,90,76,29.96,29.83,9,2,16,0.42
2013-8-3,75.5,68.3,57.6,65.7,59.6,51.8,97,76,45,30.08,29.91,4,1,12,0.02
2013-8-4,72.6,63.6,53.8,58.5,54.7,52.2,97,75,50,30.20,30.08,9,1,13,0.01
2013-8-5,71.8,61.1,51.6,62.5,55.8,50.0,95,83,63,30.13,29.93,6,1,8,0.00
2013-8-6,78.8,69.0,61.7,70.1,65.2,60.3,96,88,73,29.93,29.86,8,2,12,0.05
2013-8-7,79.0,70.9,66.4,72.9,68.2,63.4,97,91,80,29.88,29.81,13,2,26,0.02
2013-8-8,77.3,69.9,63.3,64.5,60.8,58.3,84,74,60,29.98,29.95,1,0,7,0.02
2013-8-9,76.6,68.6,58.8,65.1,60.6,57.1,96,77,55,30.01,29.96,7,1,10,0.03
2013-8-10,78.7,71.2,62.6,65.8,62.3,56.0,95,75,53,30.11,30.01,5,1,13,0.01
2013-8-11,76.3,67.7,56.4,62.7,58.2,54.7,94,73,52,30.13,30.04,6,1,12,0.02
2013-8-12,80.5,70.9,64.3,69.0,65.0,61.6,96,82,64,30.06,29.85,12,2,14,0.07
2013-8-13,66.5,61.6,54.3,63.7,54.2,48.3,97,78,57,30.12,29.89,7,2,18,0.01
2013-8-14,66.8,57.4,48.0,52.0,49.0,44.6,92,75,51,30.22,30.12,7,1,14,0.00
2013-8-15,72.7,59.1,46.4,56.2,51.5,45.0,97,78,49,30.20,30.11,7,1,12,0.00
2013-8-16,76.8,63.9,49.7,58.4,53.0,48.6,98,72,41,30.19,30.14,6,1,10,0.00
2013-8-17,77.3,66.3,53.7,60.2,55.7,52.0,95,72,45,30.25,30.17,8,2,13,0.00
2013-8-18,80.1,67.9,55.4,63.5,58.3,53.4,94,73,48,30.21,30.11,4,1,9,0.00
2013-8-19,80.4,68.4,56.1,66.7,60.4,54.7,97,78,51,30.13,30.04,6,1,11,0.00
2013-8-20,83.3,73.1,63.1,68.4,65.0,61.3,95,77,56,30.14,30.06,7,1,13,0.00
2013-8-21,85.1,75.9,65.7,70.2,66.5,63.4,93,74,53,30.11,29.97,8,2,12,0.00
2013-8-22,75.5,69.7,65.5,70.1,66.5,63.8,96,90,79,30.11,29.96,20,3,29,0.26
2013-8-23,80.8,70.3,61.3,65.4,59.8,51.9,97,73,39,30.17,30.08,7,1,11,0.00
2013-8-24,81.1,68.3,55.2,59.6,56.1,53.3,95,68,40,30.29,30.17,7,1,12,0.00
2013-8-25,84.9,72.1,59.4,66.5,61.4,54.6,90,71,51,30.28,30.15,8,2,13,0.00
2013-8-26,85.6,75.0,64.5,73.3,67.1,60.2,86,77,62,30.19,30.01,12,3,14,0.00
2013-8-27,89.7,78.9,70.4,76.0,71.0,67.7,92,78,56,30.01,29.85,10,3,18,0.00
2013-8-28,81.9,75.9,68.5,74.8,70.6,66.6,95,84,73,30.01,29.82,10,3,14,0.00
2013-8-29,86.5,74.0,62.6,71.6,67.1,61.7,98,81,51,30.07,29.98,6,1,9,0.00
2013-8-30,90.0,76.8,66.8,74.8,69.6,65.3,95,80,57,29.98,29.73,9,3,20,0.01
2013-8-31,77.7,71.7,66.9,70.9,68.4,65.1,95,89,77,29.84,29.76,5,1,11,0.07
2013-9-1,80.4,73.0,67.4,72.1,68.9,66.2,97,87,71,29.81,29.73,9,2,11,0.00
2013-9-2,75.1,68.1,59.4,68.5,62.4,54.2,97,83,62,29.97,29.74,11,2,15,0.09
2013-9-3,71.0,61.8,54.1,58.2,55.1,51.5,94,80,62,30.08,29.96,10,1,11,0.00
2013-9-4,77.4,64.7,53.1,61.2,56.1,52.0,97,77,42,30.13,30.05,12,2,19,0.01
2013-9-5,77.9,65.2,55.8,58.5,53.4,41.8,95,69,28,30.24,30.11,7,1,13,0.00
2013-9-6,79.9,65.4,51.4,64.7,54.7,46.7,85,70,50,30.26,30.05,5,1,11,0.00
2013-9-7,85.2,71.2,62.0,67.9,62.8,55.9,92,76,51,30.05,29.90,11,2,15,0.04
2013-9-8,74.5,69.6,63.5,66.7,64.6,62.3,97,85,72,30.03,29.93,9,2,16,0.00
2013-9-9,89.6,75.4,64.0,74.5,66.5,57.1,84,74,60,30.00,29.84,9,3,15,0.00
2013-9-10,93.6,82.2,72.1,71.9,68.0,63.3,90,65,37,30.01,29.88,12,4,20,0.00
2013-9-11,92.5,76.9,69.5,71.5,69.4,66.2,94,79,43,30.03,29.93,10,3,22,0.07
2013-9-12,79.1,69.7,58.8,67.6,59.7,52.0,96,73,42,30.02,29.88,8,2,13,0.01
2013-9-13,62.3,56.0,46.6,51.1,45.0,41.8,88,68,50,30.15,30.03,10,2,16,0.00
2013-9-14,68.3,54.0,39.3,46.6,41.7,38.0,97,67,37,30.22,30.08,6,1,11,0.00
2013-9-15,61.3,55.9,52.1,56.5,48.5,39.4,94,77,54,30.14,30.03,5,1,12,0.03
2013-9-16,67.9,57.7,50.2,53.8,50.5,45.9,96,79,48,30.34,30.14,5,1,11,0.01
2013-9-17,68.8,56.9,44.6,50.8,47.1,42.7,94,72,46,30.38,30.18,8,2,13,0.00
2013-9-18,78.7,66.1,55.7,63.7,55.4,46.2,90,69,54,30.18,29.96,10,2,14,0.06
2013-9-19,73.2,67.2,64.3,68.8,65.4,62.8,97,94,86,30.03,29.85,11,3,22,1.59
2013-9-20,73.8,69.7,61.6,70.4,66.2,55.7,95,89,80,29.86,29.75,10,4,17,0.54
2013-9-21,63.6,58.7,49.5,56.8,52.1,46.9,93,80,63,29.91,29.75,15,3,21,0.02
2013-9-22,63.0,54.3,45.9,50.6,46.9,43.4,96,77,54,30.07,29.91,7,1,15,0.00
2013-9-23,66.9,53.3,39.8,48.7,44.7,38.7,96,75,50,30.16,30.08,10,2,15,0.00
2013-9-24,67.9,56.5,45.1,49.8,46.5,42.6,92,71,47,30.12,29.96,10,3,16,0.00
2013-9-25,72.3,58.5,46.8,55.9,49.5,44.4,95,74,47,29.99,29.93,7,1,10,0.00
2013-9-26,76.6,60.6,46.9,54.4,49.1,45.5,96,70,35,30.10,29.97,8,1,11,0.00
2013-9-27,77.7,63.7,48.6,54.2,49.6,43.7,84,62,38,30.20,30.10,13,2,14,0.00
2013-9-28,79.0,66.1,52.0,58.7,54.5,50.0,93,68,44,30.14,29.95,10,3,16,0.00
2013-9-29,70.3,61.3,48.2,60.0,54.6,46.6,96,80,64,30.01,29.92,10,2,17,0.01
2013-9-30,72.2,57.1,43.4,54.9,49.3,42.3,98,78,45,30.03,29.92,9,1,14,0.01
2013-10-1,75.5,64.8,57.7,65.0,60.5,54.0,97,87,67,30.01,29.92,12,3,16,0.02
2013-10-2,80.9,68.8,60.2,63.0,58.2,51.5,97,72,44,30.09,29.96,5,1,9,0.03
2013-10-3,74.7,66.7,61.5,68.3,64.0,56.7,96,91,77,30.01,29.88,7,2,14,0.04
2013-10-4,77.6,70.4,63.8,70.6,66.4,61.5,94,87,78,30.00,29.91,10,2,13,0.07
2013-10-5,77.3,69.3,64.4,71.3,67.1,63.2,96,93,78,29.97,29.80,14,2,20,0.05
2013-10-6,66.2,57.7,46.0,65.0,53.8,41.1,97,87,66,29.81,29.69,14,4,17,0.04
2013-10-7,59.9,49.3,43.6,49.2,43.9,40.5,92,82,56,30.13,29.76,13,4,20,0.02
2013-10-8,72.6,57.7,45.5,53.7,47.3,42.5,92,70,40,30.24,30.13,7,2,12,0.02
2013-10-9,69.8,57.5,45.6,50.2,46.0,42.3,89,67,42,30.29,30.17,8,1,11,0.02
2013-10-10,73.3,58.7,45.3,54.5,48.4,43.1,93,71,45,30.21,30.09,5,1,9,0.02
2013-10-11,73.5,58.5,45.9,50.4,47.3,43.7,93,69,39,30.13,30.01,6,1,8,0.01
2013-10-12,75.7,63.6,51.4,62.1,54.8,48.5,92,74,55,30.12,29.99,10,3,15,0.01
2013-10-13,61.0,52.6,41.5,54.7,44.3,38.8,95,75,50,30.40,30.12,12,2,18,0.01
2013-10-14,62.8,50.3,38.9,45.9,42.5,36.8,95,77,52,30.43,30.23,9,1,15,0.01
2013-10-15,62.8,55.4,47.2,60.4,52.0,43.3,95,88,80,30.23,29.83,11,4,16,0.01
2013-10-16,61.1,49.9,43.1,59.4,45.8,40.9,94,86,80,29.95,29.85,12,4,16,0.00
2013-10-17,49.9,47.9,42.2,46.9,44.7,40.0,93,89,83,29.95,29.83,14,4,19,0.01
2013-10-18,55.4,44.3,39.0,46.8,40.3,37.2,95,86,68,29.99,29.89,10,3,16,0.00
2013-10-19,52.1,45.3,40.9,42.8,37.8,30.6,95,77,44,29.96,29.81,13,4,21,0.01
2013-10-20,60.8,49.6,38.4,45.3,40.5,35.7,90,72,55,29.93,29.80,14,4,23,0.01
2013-10-21,55.1,47.7,39.9,46.4,40.1,28.0,91,75,61,29.97,29.84,20,6,20,0.00
2013-10-22,44.6,37.0,29.2,33.9,29.5,25.5,92,75,48,30.01,29.94,11,4,19,0.05
2013-10-23,41.7,36.1,33.1,36.5,33.0,28.7,96,89,61,30.04,29.88,15,4,21,0.03
2013-10-24,40.8,35.4,32.0,35.6,32.2,30.5,95,88,76,30.29,30.01,9,2,18,0.02
2013-10-25,46.6,38.0,28.3,35.3,30.1,26.7,96,75,47,30.42,30.16,14,3,20,0.27
2013-10-26,50.3,43.8,39.0,39.0,32.9,28.3,76,65,55,30.15,29.87,14,6,23,0.05
2013-10-27,52.7,42.1,30.5,35.5,31.8,28.5,93,69,43,30.11,30.01,11,2,16,0.37
2013-10-28,56.7,42.7,30.8,40.2,34.2,27.9,90,73,50,30.38,30.08,9,1,10,0.02
2013-10-29,54.1,42.7,33.4,41.8,36.7,31.1,93,80,61,30.42,30.22,8,2,13,0.00
2013-10-30,59.4,51.1,41.0,56.1,47.3,38.3,96,87,79,30.22,29.88,8,2,13,0.72
2013-10-31,62.8,59.3,50.8,61.7,57.9,49.1,97,95,92,29.85,29.21,18,7,28,0.89
2013-11-1,50.6,45.9,44.1,48.9,42.1,39.1,96,87,72,29.73,29.29,19,7,27,0.11
2013-11-2,46.7,43.1,38.8,43.2,40.4,36.7,96,90,78,30.12,29.72,7,2,19,0.04
2013-11-3,47.7,42.3,37.0,38.8,37.2,35.2,95,83,66,30.36,30.12,8,3,15,0.03
2013-11-4,52.0,45.4,38.0,42.4,37.6,34.5,87,75,63,30.38,30.22,14,6,21,0.02
2013-11-5,54.7,51.9,49.5,48.5,45.2,42.6,89,78,70,30.33,30.09,10,4,18,0.02
2013-11-6,57.0,50.0,40.9,52.5,46.3,36.5,95,88,65,30.10,29.83,20,7,23,0.04
2013-11-7,43.4,39.1,35.1,35.3,31.2,28.4,86,73,57,30.25,30.10,14,6,21,0.02
2013-11-8,45.4,38.9,28.9,32.7,30.8,26.6,92,73,57,30.35,30.12,6,3,13,0.04
2013-11-9,57.5,49.0,43.5,42.0,37.1,30.7,72,63,54,30.11,29.90,17,10,26,0.03
2013-11-10,46.3,39.6,30.8,33.2,30.7,27.4,91,71,57,30.34,30.05,20,6,29,0.01
2013-11-11,44.5,36.5,27.4,38.4,31.7,23.4,95,83,70,30.43,30.13,11,4,16,0.01
2013-11-12,31.0,25.6,20.7,27.5,22.4,16.6,94,87,75,30.68,30.44,7,1,15,0.20
2013-11-13,34.0,25.0,15.7,23.5,18.8,13.5,91,78,62,30.64,30.27,17,5,21,0.05
2013-11-14,48.7,35.6,28.4,29.6,24.1,20.6,73,64,45,30.27,30.02,15,7,22,0.27
2013-11-15,47.8,44.5,37.5,35.5,32.4,27.2,67,62,56,30.07,30.00,13,4,18,0.00
2013-11-16,57.7,49.2,41.9,55.1,45.2,33.0,93,86,68,30.03,29.69,15,6,24,0.08
2013-11-17,63.6,56.8,44.2,60.6,53.1,37.8,95,88,72,29.69,29.23,35,10,39,0.42
2013-11-18,43.8,38.3,34.6,37.8,31.6,26.5,85,77,69,30.23,29.68,22,8,32,0.02
2013-11-19,43.2,36.4,32.2,29.4,27.2,25.7,77,69,55,30.40,30.24,7,2,12,0.02
2013-11-20,42.1,35.7,28.8,35.6,28.5,24.4,87,75,61,30.38,30.18,13,5,20,0.14
2013-11-21,47.7,44.1,38.9,44.1,40.7,35.8,97,88,77,30.25,30.18,8,2,16,0.03
2013-11-22,44.8,37.5,26.4,44.0,35.1,24.1,97,91,80,30.46,30.19,13,4,19,0.02
2013-11-23,28.9,24.5,19.9,26.4,19.6,12.8,93,81,67,30.65,30.40,16,5,23,0.00
2013-11-24,23.8,20.7,18.2,18.4,11.4,3.2,90,68,42,30.71,30.49,14,4,18,0.00
2013-11-25,29.8,24.5,17.4,25.7,17.3,8.3,93,74,62,30.48,30.17,13,6,22,0.00
2013-11-26,32.3,28.7,25.9,28.5,24.5,18.9,90,84,64,30.17,30.02,9,4,16,0.01
2013-11-27,28.0,23.9,20.1,23.3,20.1,18.1,94,86,70,30.28,30.07,13,3,20,0.00
2013-11-28,30.7,24.4,20.0,22.1,17.3,14.0,91,74,61,30.49,30.26,8,2,14,0.00
2013-11-29,33.8,28.8,25.7,22.7,20.9,19.1,81,72,60,30.68,30.50,8,2,11,0.12
2013-11-30,46.5,36.4,28.6,32.4,27.3,22.4,81,70,57,30.51,30.12,13,4,16,0.27
2013-12-1,40.8,33.3,27.3,32.8,28.1,24.8,90,81,69,30.13,30.03,5,1,9,0.04
2013-12-2,39.2,33.2,26.4,31.1,28.5,24.5,94,83,67,30.03,29.86,11,3,17,0.02
2013-12-3,47.7,40.5,33.0,45.7,38.8,31.0,95,94,91,29.85,29.76,12,5,18,0.12
2013-12-4,58.3,50.2,45.1,55.7,48.6,43.8,97,94,90,29.82,29.59,11,4,17,0.07
2013-12-5,56.2,33.3,26.5,53.3,27.8,19.7,90,80,73,30.24,29.62,17,9,25,0.00
2013-12-6,26.4,24.5,21.9,20.7,18.6,14.4,81,78,71,30.49,30.23,9,4,13,0.00
2013-12-7,21.8,18.5,12.3,15.6,12.9,9.9,90,78,71,30.69,30.50,12,4,15,0.00
2013-12-8,24.8,19.6,11.8,22.8,15.7,9.5,94,85,71,30.63,30.02,15,5,18,0.00
2013-12-9,25.7,20.8,12.7,23.8,16.4,6.6,94,83,69,30.24,29.97,18,8,25,0.00
2013-12-10,22.3,12.6,0.2,12.4,5.7,-4.0,82,74,64,30.35,30.10,18,7,24,0.00
2013-12-11,21.5,16.4,11.5,19.5,11.8,5.1,92,82,70,30.55,30.33,13,5,17,0.00
2013-12-12,18.6,8.2,-5.1,10.1,2.2,-9.1,84,76,63,30.58,30.32,14,5,19,0.00
2013-12-13,30.3,21.1,11.0,23.4,14.8,7.6,92,77,63,30.32,30.19,7,3,13,0.02
2013-12-14,25.5,22.7,19.5,23.8,20.9,17.3,94,93,91,30.21,29.91,12,4,16,0.00
2013-12-15,26.0,16.9,7.6,23.5,13.5,3.8,92,86,81,30.15,29.95,17,7,21,0.00
2013-12-16,19.3,14.0,6.4,16.0,10.4,3.5,92,85,73,30.23,30.08,7,2,13,0.02
2013-12-17,29.0,21.7,15.2,25.8,19.2,13.5,94,90,78,30.11,30.00,11,5,17,0.00
2013-12-18,32.4,22.9,14.1,24.4,15.6,10.7,88,74,54,30.24,29.94,15,4,17,0.06
2013-12-19,40.6,37.2,33.0,36.4,33.2,25.0,95,85,72,30.01,29.86,10,4,19,0.08
2013-12-20,42.2,38.6,33.4,41.4,37.9,32.9,98,97,96,29.86,29.73,8,1,12,0.30
2013-12-21,34.6,33.2,31.6,34.1,32.7,31.1,98,98,98,29.86,29.62,9,2,15,0.57
2013-12-22,33.6,31.6,28.5,32.7,30.7,26.5,98,96,92,30.09,29.56,11,4,19,0.20
2013-12-23,28.3,20.9,5.6,26.3,17.2,1.8,92,85,71,30.46,30.08,16,8,20,0.00
2013-12-24,16.9,8.6,1.7,11.8,4.5,-2.1,87,83,76,30.62,30.46,11,4,16,0.00
2013-12-25,25.6,21.5,15.5,24.4,17.8,11.8,95,86,75,30.51,30.15,13,5,20,0.00
2013-12-26,31.4,24.4,18.0,26.5,20.4,14.3,95,85,75,30.34,30.13,15,5,18,0.00
2013-12-27,39.9,33.8,27.2,32.4,29.3,25.1,92,84,71,30.35,30.15,15,4,21,0.02
2013-12-28,48.6,39.2,32.2,37.4,32.7,29.3,89,78,63,30.16,29.91,13,6,21,0.00
2013-12-29,38.4,31.1,20.5,32.4,27.1,17.0,93,85,76,30.13,29.79,11,5,18,0.00
2013-12-30,20.3,15.5,11.9,16.8,11.1,8.3,89,82,76,30.34,30.13,11,5,17,0.00
2013-12-31,13.6,12.0,9.0,11.5,8.6,4.8,91,86,75,30.41,30.21,11,4,15,0.00
2014-1-1,16.6,14.6,11.5,13.4,12.0,8.9,92,89,86,30.37,30.23,10,4,13,0.00
2014-1-2,13.6,10.5,-2.6,10.3,6.2,-6.2,90,83,69,30.43,30.13,9,4,17,0.00